Theta_e
343 347 353 353 352 352 351 350 350 351 351 351 352 352 352 351 350 349 349 349 349 349 349 348 347 347 348 348 349 349 349 349 347 344 345 346 348 351 352 353 353 353 357
344 348 354 354 353 352 351 351 351 351 351 352 352 352 352 351 350 349 349 349 349 349 349 349 350 350 348 348 349 349 350 350 349 349 348 345 348 348 352 353 353 353 356
345 347 351 355 354 353 352 351 351 351 351 352 352 352 351 351 350 349 349 348 348 348 349 348 348 349 350 350 349 350 349 350 350 350 350 341 337 345 348 353 353 353 353
344 345 347 356 355 353 352 351 351 351 352 352 351 350 351 350 349 348 346 345 345 345 343 345 348 349 349 349 349 349 350 350 350 349 341 339 337 345 353 355 353 353 351
335 336 347 356 356 354 353 352 352 352 351 351 350 349 349 348 347 344 341 337 336 337 340 342 344 345 344 345 346 347 348 349 350 347 337 334 330 342 354 355 354 352 351
336 340 349 357 356 353 352 353 351 350 350 349 348 347 346 344 343 339 336 333 333 332 334 335 337 339 340 341 343 345 346 348 348 338 336 335 336 340 358 356 353 352 352
336 343 348 356 355 353 351 352 351 350 348 346 345 345 343 341 338 336 333 332 332 332 332 332 334 335 336 337 338 339 342 345 341 337 336 334 331 347 356 354 351 351 352
343 344 347 355 355 354 353 352 348 344 342 341 339 339 339 339 336 332 333 331 332 332 334 333 334 335 338 341 340 340 340 341 341 337 336 333 338 348 351 350 348 349 349
343 345 346 347 350 352 351 346 343 343 340 337 338 337 340 339 338 336 334 332 333 333 335 337 341 343 340 338 341 346 343 341 336 336 337 335 343 350 345 346 346 346 346
321 324 332 343 342 343 340 344 343 341 336 335 336 335 335 332 335 337 334 331 337 334 339 339 340 340 339 338 339 343 343 341 332 332 334 336 342 341 343 347 348 348 346
325 325 325 325 327 338 339 338 342 337 333 333 331 334 326 320 323 325 333 335 333 333 333 334 334 336 336 330 333 335 331 325 325 331 336 341 341 340 339 341 343 346 349
318 322 322 323 324 324 342 334 327 325 321 320 321 321 321 318 322 327 329 331 331 333 332 332 331 330 326 319 319 324 316 317 319 321 331 339 339 338 341 340 341 341 342
317 321 322 322 323 323 323 321 320 323 321 320 321 319 320 318 317 318 318 318 316 326 320 320 319 318 317 318 319 316 315 315 314 316 324 338 336 336 337 339 340 340 340
315 317 319 320 322 319 321 320 319 319 319 319 319 319 318 317 315 316 317 317 315 317 316 315 315 316 317 317 318 318 316 315 315 314 319 335 337 337 336 336 337 338 340
314 316 317 319 320 319 318 320 317 318 319 318 318 320 317 315 314 316 317 315 315 316 313 312 313 314 315 316 317 316 315 315 317 316 316 332 335 335 335 335 334 336 338
315 314 318 318 318 320 317 316 315 317 319 318 317 317 319 315 314 315 316 314 314 314 313 311 311 312 313 314 315 314 314 315 316 316 320 325 336 334 332 332 333 334 336
315 314 317 318 317 317 318 316 315 318 318 317 316 317 318 316 315 315 314 312 313 313 312 311 312 312 312 313 312 312 313 315 318 318 321 323 325 333 331 330 328 329 331
317 314 316 323 319 317 316 318 315 317 318 318 316 316 318 317 315 314 313 312 314 313 311 310 310 309 309 310 309 309 310 315 317 317 321 322 323 323 327 329 327 326 326
317 316 315 317 317 318 319 317 317 315 317 316 316 315 317 318 316 314 312 312 313 311 310 309 308 307 306 307 309 310 309 314 314 318 318 318 319 320 320 326 328 326 326
317 317 316 316 316 317 317 317 317 315 316 316 315 316 316 316 316 314 312 311 312 309 308 307 306 307 305 306 310 310 308 310 310 313 314 317 317 318 319 319 318 319 328
319 316 316 315 316 316 314 313 313 312 313 314 315 317 316 316 316 314 312 312 312 308 307 307 306 305 305 307 303 306 306 310 312 310 313 313 314 316 317 318 318 317 318
318 317 316 315 314 316 317 317 315 314 315 315 316 316 316 316 315 315 312 311 309 308 306 306 305 304 304 304 301 300 300 303 308 309 309 311 311 313 315 318 317 317 316
319 317 317 315 314 315 317 317 316 317 315 313 314 314 315 316 316 314 313 311 309 308 306 305 305 304 303 304 304 303 299 301 305 306 307 308 309 310 311 313 316 317 316
321 319 317 316 315 316 317 315 313 312 311 312 312 312 316 316 316 315 313 311 310 308 306 307 309 305 303 302 303 306 310 310 304 300 304 305 307 309 309 311 313 315 315
322 320 317 316 315 316 315 315 313 311 311 313 313 313 314 312 314 316 313 312 309 309 308 307 308 305 304 303 302 303 303 303 306 301 298 303 306 308 308 310 311 311 315
324 321 320 316 314 315 316 315 313 313 311 310 312 311 311 311 312 313 314 312 311 309 309 309 309 306 305 304 304 303 302 301 301 300 299 299 300 305 308 309 310 310 312
Wind_Speed
5 6 9 9 9 7 7 7 7 7 7 8 8 9 9 9 9 10 10 9 9 9 8 8 8 9 9 9 8 8 9 9 7 6 4 2 4 5 5 5 5 5 8
8 6 9 9 7 8 7 6 6 6 7 8 8 9 10 10 11 11 11 10 10 10 10 9 9 9 9 10 10 10 10 10 11 10 8 6 7 8 9 8 5 6 8
9 8 8 9 8 8 7 6 6 5 6 7 8 9 9 9 10 10 11 12 12 12 12 12 11 11 10 10 11 11 11 11 11 12 12 4 4 10 10 11 10 9 8
8 6 6 9 8 8 6 5 5 5 6 7 9 9 10 10 10 11 12 12 13 12 12 11 12 12 12 13 13 13 13 14 13 12 3 5 9 14 13 14 13 10 8
7 5 5 7 6 6 5 4 4 6 7 9 9 8 8 8 9 10 11 12 12 11 11 12 12 12 11 10 12 13 14 15 15 12 3 5 5 10 14 16 13 10 10
5 6 6 5 5 4 3 6 6 7 8 8 7 8 8 8 8 8 7 10 13 13 11 11 11 11 11 12 11 11 12 15 16 6 5 7 7 10 11 13 13 12 11
2 5 5 4 5 4 4 8 10 9 9 10 10 9 7 6 5 4 5 9 10 11 10 10 10 11 12 12 13 13 13 12 7 6 5 5 8 14 10 11 9 10 12
5 5 5 5 5 4 10 10 11 11 11 11 12 11 8 1 1 2 4 7 8 9 11 12 12 12 13 14 14 13 13 12 8 5 5 5 11 11 4 5 6 8 9
6 6 4 1 6 9 12 11 12 12 11 11 13 15 17 3 4 6 7 8 9 11 12 14 15 10 10 13 15 18 9 10 6 4 6 3 10 3 2 3 5 7 9
7 6 4 4 4 5 5 10 10 13 13 13 15 15 15 14 12 17 4 8 13 12 14 16 16 13 13 14 14 16 13 11 7 5 2 1 3 3 6 9 8 10 13
8 7 6 5 4 4 6 5 8 12 11 12 12 15 9 5 6 9 12 14 13 13 15 16 15 15 14 14 14 13 10 3 5 4 2 4 5 5 4 6 8 10 11
5 5 6 7 6 4 3 4 3 6 3 5 6 6 4 6 6 8 11 13 15 18 18 18 16 17 15 6 5 8 2 2 3 2 1 2 4 6 9 6 9 10 12
4 4 6 6 6 7 4 2 1 2 3 4 6 6 5 5 5 4 4 4 4 11 5 8 7 5 7 6 7 5 5 3 2 2 3 3 1 5 6 8 9 10 12
6 2 4 6 5 4 3 3 3 3 2 3 3 5 4 3 4 4 3 5 4 4 6 5 3 6 7 8 7 8 6 5 3 2 4 3 4 6 6 7 10 11 10
7 2 2 6 5 4 5 4 3 4 3 2 4 4 3 4 5 4 4 4 4 4 5 5 5 5 6 8 7 7 7 7 7 3 2 4 3 5 5 8 10 10 11
5 4 3 4 4 4 3 3 2 4 4 3 3 2 4 3 3 4 4 4 4 4 4 4 4 5 5 5 7 8 8 7 5 1 2 4 6 5 4 7 8 8 9
4 5 6 4 2 3 1 1 2 4 4 4 2 4 4 4 5 5 4 4 3 4 5 5 6 5 5 6 6 7 6 8 7 4 4 3 5 6 4 6 6 7 7
6 6 6 4 4 1 2 2 2 4 4 4 2 4 5 4 6 5 4 4 3 4 4 4 4 5 5 5 5 5 5 5 6 6 4 4 3 2 3 3 4 3 4
8 7 5 4 3 2 4 4 4 4 4 4 3 3 4 4 5 4 3 3 3 4 4 3 3 3 3 5 5 4 5 4 5 5 6 5 5 3 2 3 5 5 5
8 7 7 4 2 2 0 2 2 2 3 3 3 3 5 3 4 3 3 4 3 4 4 3 3 3 2 4 4 3 2 2 4 5 4 4 4 4 3 3 3 4 7
7 7 7 7 3 1 0 2 1 2 1 1 3 5 5 4 4 3 3 4 3 4 3 4 3 4 4 7 4 4 3 3 9 5 5 5 6 5 5 4 3 2 3
10 8 7 7 5 2 2 1 1 2 1 2 3 3 4 4 4 3 3 3 3 3 5 4 4 3 2 4 2 1 5 6 7 4 4 5 7 5 5 4 3 3 3
12 11 9 8 8 5 4 1 2 2 3 2 1 2 2 3 4 4 3 4 3 3 2 2 2 4 3 3 5 3 3 3 5 3 5 4 7 5 5 5 4 3 3
12 9 8 7 7 5 5 4 2 2 1 3 2 1 3 4 4 4 3 4 3 1 1 2 2 2 2 3 3 2 2 3 2 5 4 4 5 6 6 4 4 4 3
10 8 8 7 7 6 6 6 5 3 2 1 2 3 4 2 3 4 3 3 3 1 2 3 2 2 0 1 1 2 2 2 3 2 4 6 4 4 4 4 3 3 4
8 8 7 8 7 7 7 6 6 4 3 1 2 3 1 2 1 2 3 3 3 2 2 2 3 2 2 2 1 1 2 1 4 2 3 4 4 6 4 4 3 3 4
Wind_Direction
217 195 155 139 128 114 99 81 70 60 54 50 41 38 36 33 30 25 21 15 4 355 346 336 331 330 330 333 338 339 337 340 345 350 352 307 250 239 247 263 264 188 176
159 180 161 149 137 121 107 93 68 52 45 39 35 33 31 28 26 26 22 19 10 4 355 344 332 321 317 318 321 323 323 324 327 330 333 325 301 254 233 221 204 175 184
166 178 166 158 144 127 110 88 73 57 46 38 33 28 31 35 37 34 26 15 7 2 357 347 342 337 330 320 314 312 313 313 315 318 321 321 261 274 250 223 202 195 187
160 173 157 159 145 123 113 99 74 54 39 35 36 27 35 41 37 35 27 20 10 0 353 349 355 349 343 337 326 319 313 307 305 306 337 310 303 290 245 222 209 200 191
149 138 147 136 128 113 106 88 66 48 43 42 41 40 47 47 50 45 34 18 3 355 354 349 352 351 340 331 324 317 307 302 302 307 316 291 278 305 286 208 197 204 202
79 62 70 112 109 103 104 88 71 60 55 48 43 47 47 51 58 45 34 12 7 358 348 342 338 337 332 327 322 316 305 298 295 297 302 294 297 291 270 188 188 199 212
107 60 82 131 145 144 108 95 86 73 59 53 50 43 43 50 47 42 10 15 23 17 11 4 353 339 334 325 314 309 303 303 296 286 291 295 299 306 225 183 189 207 202
106 72 84 146 143 131 106 100 95 88 77 61 38 25 352 317 10 320 315 352 8 4 354 354 347 340 334 328 316 307 297 300 309 300 302 292 288 287 166 196 206 220 231
94 79 72 76 127 114 110 115 117 105 80 56 37 32 21 133 328 295 267 314 350 0 344 341 345 9 18 359 359 349 294 311 311 288 296 315 302 253 244 215 225 230 236
86 66 47 35 62 105 104 134 118 92 69 62 45 36 40 29 12 18 21 335 347 5 13 11 9 5 6 357 359 1 15 349 324 310 307 318 356 360 277 273 255 244 235
54 57 68 50 43 130 130 144 106 95 79 64 47 37 41 18 3 23 8 43 16 18 13 6 10 2 355 351 349 352 24 14 19 23 25 54 62 9 343 306 282 273 264
58 46 56 43 41 53 163 73 73 88 73 63 58 37 30 24 5 24 24 19 16 15 9 8 13 12 1 339 336 348 328 5 8 358 280 26 58 15 350 312 300 305 282
95 66 54 55 48 54 64 107 115 128 65 50 59 53 31 13 2 11 360 357 359 21 21 11 2 2 356 352 341 326 303 347 319 323 315 145 47 38 358 343 316 289 288
79 97 80 65 58 65 97 70 78 94 91 61 32 53 38 8 10 2 12 349 360 11 16 4 350 343 349 346 349 342 337 326 298 272 297 3 92 61 28 360 345 325 289
91 83 49 75 59 25 37 70 56 102 104 99 63 43 49 21 15 357 11 348 21 19 16 357 352 351 339 340 346 350 336 326 327 339 303 0 114 83 33 10 350 338 314
120 117 176 107 88 64 49 104 102 106 137 98 79 76 73 46 27 23 11 353 28 29 1 347 356 341 332 335 342 342 334 327 320 32 56 16 106 100 59 22 19 13 360
158 147 159 134 119 119 122 207 128 116 147 107 115 79 75 46 42 48 26 14 26 22 12 3 357 349 352 353 349 339 338 343 29 22 73 48 34 50 63 26 16 2 7
158 151 136 139 179 257 246 226 241 122 157 148 143 92 82 54 54 49 37 22 21 21 20 1 358 351 355 351 332 326 340 355 21 14 30 35 39 22 32 41 3 358 338
168 165 150 159 175 272 270 243 229 117 159 162 134 108 103 74 65 75 43 21 33 33 20 358 351 2 344 330 315 336 343 16 8 16 21 29 28 11 6 351 335 314 304
170 164 160 170 191 295 260 116 106 113 181 134 157 134 136 123 88 83 57 45 50 30 10 3 15 334 301 310 322 338 321 3 18 15 4 9 1 12 353 355 344 306 305
165 168 168 165 188 137 235 114 87 174 169 172 200 171 150 147 121 94 57 59 69 39 356 8 352 349 323 350 3 355 334 344 27 7 355 346 345 339 335 342 335 339 316
173 179 181 175 170 156 154 208 179 224 189 188 190 208 168 151 131 109 97 71 91 52 17 18 29 348 325 13 16 337 2 336 355 358 350 352 340 328 329 326 317 330 335
182 180 180 184 174 168 166 87 11 18 55 25 274 268 234 166 133 114 119 108 130 84 20 332 19 49 360 325 18 85 8 351 322 314 343 338 338 325 317 317 308 296 322
189 178 171 180 184 173 138 122 143 129 142 222 232 200 206 165 149 133 137 114 138 108 22 306 7 44 65 9 344 15 265 241 308 322 308 317 318 316 315 311 298 295 284
172 184 179 171 190 174 159 146 135 149 209 284 315 18 113 163 166 166 166 141 127 208 248 265 328 357 312 155 182 331 326 281 241 227 295 323 316 305 291 298 272 273 271
171 174 187 175 196 192 167 161 158 177 198 280 342 77 231 210 222 258 228 169 195 208 245 243 257 252 254 255 236 240 218 255 303 305 289 289 272 300 312 325 302 281 266